Flag for Canada Weather past 2 weeks in Sault Ste. Marie, Ontario, Canada

Now
57 °F

Scattered clouds.


Feels Like: 55 °F
Forecast: 49 / 71 °F
Wind: 12 mph from Northwest

Location: Sault Ste Marie

Current Time: Jul 4, 2015 at 11:39:54 AM

Latest Report: Jul 4, 2015 at 11:00 AM


Visibility: 10 mi

Pressure: 29.98 "Hg

Humidity: 88%

Dew point: 54 °F

Location of Sault Ste. MarieLocation

Historic Weather in Sault Ste. Marie — Graph

°F

Sault Ste. Marie temperature yesterday

Maximum temperature yesterday: 72 °F (at 2:00 PM)
Minimum temperature yesterday: 48 °F (at 12:00 AM)
Average temperature yesterday: 61 °F

Past Weeks' High & Low Weather Summary

 TemperatureHumidityPressure
High81 °F (Jun 28, 3:00 PM)100% (Jun 21, 11:00 PM)30.21 "Hg (Jun 21, 11:00 PM)
Low39 °F (Jul 2, 6:00 AM)26% (Jun 29, 7:00 PM)29.54 "Hg (Jun 23, 12:00 AM)
Average58 °F80%29.94 "Hg
* Reported Jun 19 10:00 AM — Jul 4 10:00 AM, Sault Ste. Marie, Weather by CustomWeather, © 2015

Note: Actual official high and low records may vary slightly from our data, if they occured in-between our weather recording intervals... More about our weather records

Advertising

Sault Ste. Marie weather history for previous 24 hours

 ConditionsComfort  
Time TempWeatherWind HumidityBarometerVisibility
10:00 AM
Sat, Jul 4
55 °FFog.8 mph94%29.98 "Hg3 mi
9:00 AM54 °FFog.9 mph100%29.97 "Hg1 mi
8:51 AM54 °FFog.9 mph100%29.97 "Hg1 mi
8:04 AM54 °FFog.7 mph100%29.96 "Hg1 mi
7:00 AM54 °FFog.6 mph100%29.93 "Hg1 mi
6:52 AM54 °FFog.8 mph100%29.93 "Hg2 mi
6:00 AM46 °FPassing clouds.No wind100%29.92 "Hg15 mi
5:00 AM46 °FClear.No wind100%29.91 "Hg15 mi
4:00 AM48 °FClear.No wind100%29.90 "Hg15 mi
3:00 AM50 °FClear.No wind94%29.89 "Hg15 mi
2:00 AM52 °FClear.2 mph94%29.89 "Hg15 mi
1:00 AM55 °FClear.5 mph88%29.89 "Hg15 mi
12:00 AM54 °FClear.5 mph94%29.88 "Hg15 mi
11:00 PM
Fri, Jul 3
57 °FPassing clouds.2 mph88%29.89 "Hg15 mi
10:00 PM63 °FOvercast.2 mph77%29.89 "Hg15 mi
9:00 PM63 °FOvercast.6 mph77%29.88 "Hg15 mi
8:00 PM63 °FCloudy.9 mph73%29.89 "Hg15 mi
7:00 PM64 °FCloudy.14 mph73%29.88 "Hg15 mi
6:00 PM66 °FMostly cloudy.10 mph68%29.88 "Hg15 mi
5:00 PM66 °FMostly cloudy.13 mph64%29.88 "Hg15 mi
4:00 PM68 °FMore clouds than sun.10 mph64%29.88 "Hg15 mi
3:00 PM72 °FMostly cloudy.13 mph61%29.88 "Hg15 mi
2:00 PM72 °FMild.9 mph61%29.89 "Hg15 mi
1:00 PM70 °FPartly sunny.10 mph60%29.90 "Hg15 mi
12:00 PM68 °FPartly sunny.7 mph69%29.90 "Hg15 mi
11:00 AM68 °FBroken clouds.6 mph60%29.91 "Hg15 mi
Weather by CustomWeather, © 2015

See weather overviewHow to use our weather pages